Location: Unspecified
(64.9000°N, 0.0000°E)
Time: 10:21:24
(UTC+00:00)

Transit 2A Rocket - Pass Details

Date: 25 June 2019
Orbit: 588 x 915 km, 66.7° (Epoch: 18 July)

Event Time Altitude Azimuth Distance (km) Brightness Sun altitude
Rises 13:32:22 0° 268° (W) 3,504 8.7 46.0°
Reaches altitude 10° 13:34:57 10° 271° (W) 2,533 8.1 45.9°
Maximum altitude 13:40:50 74° 356° (N) 865 5.9 45.5°
Drops below altitude 10° 13:46:15 10° 83° (E) 2,331 7.3 45.2°
Sets 13:48:33 0° 85° (E) 3,207 7.9 45.1°
